Regional Weather Roundup
Issued by NWS

Home | Current Version | Previous Version | Graphics & Text | Print | Product List | Glossary On
Versions: 1 2 3 4 5 6 7 8 9 10 11 12 13 14 15 16 17 18 19 20 21 22 23 24 25 26 27 28 29 30 31 32 33 34 35 36 37 38 39 40 41 42 43 44 45 46 47 48 49 50
000
ASUS43 KTOP 270859
RWRKS

WEATHER ROUNDUP FOR KANSAS
NATIONAL WEATHER SERVICE GOODLAND KS
300 AM CST THU NOV 27 2014

NOTE:  "FAIR" INDICATES FEW OR NO CLOUDS BELOW 12,000 FEET WITH NO
SIGNIFICANT WEATHER AND/OR OBSTRUCTIONS TO VISIBILITY.

KSZ001>006-013>018-027>032-041>047-271000-
NORTHWEST KANSAS

CITY           SKY/WX    TMP DP  RH WIND       PRES   REMARKS
GOODLAND       PTCLDY    25  20  81 S12       30.33S WCI  14
HAYS           PTCLDY    25  10  54 E3        30.45R
HILL CITY      MOCLDY    26  17  68 E3        30.42S
RUSSELL        PTCLDY    25  18  74 S3        30.44R
$$

KSZ061>065-074>080-084>089-271000-
SOUTHWEST KANSAS

CITY           SKY/WX    TMP DP  RH WIND       PRES   REMARKS
DODGE CITY     CLEAR     22  15  75 S5        30.42R
ELKHART          N/A     27  14  58 S10         N/A  WCI  17
GARDEN CITY    PTCLDY    20  15  81 S7        30.40R
GREAT BEND     CLEAR     27  14  59 SE3       30.47R
LIBERAL        PTCLDY    21  10  63 SW7       30.43S
$$

KSZ066>073-081>083-090>101-271000-
SOUTHEAST KANSAS

CITY           SKY/WX    TMP DP  RH WIND       PRES   REMARKS
CHANUTE        CLEAR     24  20  84 N7        30.47R
COFFEYVILLE    CLEAR     26  21  81 N7        30.48R
HUTCHINSON     CLEAR     26  17  68 CALM      30.47R
MEDICINE LODGE   N/A     23  19  85 NE6       30.48R
NEWTON         CLEAR     21  14  73 N6        30.46R
PARSONS        CLEAR     26  21  81 N5        30.48R
WICHITA INTL   PTCLDY    28  18  66 N5        30.47R
WICHITA JABRA  CLEAR     23  18  81 N5        30.46R
WINFIELD       CLEAR     26  20  77 NW7       30.50R
$$

KSZ007>012-019>026-033>040-048>060-102>105-271000-
NORTHEAST KANSAS

CITY           SKY/WX    TMP DP  RH WIND       PRES   REMARKS
CONCORDIA      CLEAR     18  14  84 CALM      30.45F
EMPORIA        CLEAR     20  17  88 N6        30.46S
LAWRENCE       CLOUDY    25  18  74 N9        30.50R
MANHATTAN      CLEAR     16  14  92 CALM      30.49F
OLATHE IND     CLOUDY    26  20  77 NW14      30.48R WCI  14
OLATHE EXE     CLOUDY    27  21  78 NW10      30.46R WCI  17
SALINA         CLEAR     25  16  68 N6        30.48S
TOPEKA BILLARD MOCLDY    25  19  78 N7        30.50R
TOPEKA FORBES  CLEAR     24  18  77 N7        30.48S
$$



USA.gov is the U.S. government's official web portal to all federal, state and local government web resources and services.